N208PE MDJB-TJSJ

Flight info

Callsign N208PE
Flight time 1h 26m
Altitude 10000
Route CDO B520 BQN RTE2 SJU
Aircraft C208/L-SDFGR/C

Departure

Time 2026-04-27 18:19
Airport La Isabela International Airport (MDJB)

Arrival

Time 2026-04-27 19:45
Airport Luis Munoz Marin International Airport (TJSJ)
Time Latitude Longitude Altitude Speed Heading
2026-04-27 18:04 18.57643 -69.98343 84 ft 0 kts 97°
2026-04-27 18:07 18.57643 -69.98342 84 ft 0 kts 97°
2026-04-27 18:09 18.57643 -69.98341 84 ft 0 kts 97°
2026-04-27 18:11 18.57643 -69.98340 84 ft 0 kts 97°
2026-04-27 18:11 18.57640 -69.98320 84 ft 7 kts 91°
2026-04-27 18:11 18.57672 -69.98297 84 ft 5 kts 338°
2026-04-27 18:12 18.57688 -69.98335 84 ft 10 kts 306°
2026-04-27 18:12 18.57754 -69.98332 84 ft 15 kts 12°
2026-04-27 18:12 18.57855 -69.98320 84 ft 13 kts
2026-04-27 18:12 18.57939 -69.98333 84 ft 12 kts 309°
2026-04-27 18:13 18.57955 -69.98396 84 ft 0 kts 274°
2026-04-27 18:13 18.57955 -69.98397 84 ft 0 kts 274°
2026-04-27 18:13 18.57955 -69.98398 84 ft 1 kts 274°
2026-04-27 18:14 18.57958 -69.98426 84 ft 8 kts 276°
2026-04-27 18:14 18.57962 -69.98479 84 ft 3 kts 234°
2026-04-27 18:14 18.57933 -69.98482 84 ft 6 kts 167°
2026-04-27 18:14 18.57916 -69.98482 84 ft 0 kts 187°
2026-04-27 18:15 18.57959 -69.98477 84 ft 0 kts 186°
2026-04-27 18:18 18.57948 -69.98478 84 ft 5 kts 186°
2026-04-27 18:18 18.57937 -69.98480 84 ft 5 kts 186°
2026-04-27 18:18 18.57755 -69.98498 84 ft 58 kts 185°
2026-04-27 18:18 18.57181 -69.98572 138 ft 97 kts 186°
2026-04-27 18:19 18.56491 -69.98649 373 ft 101 kts 182°
2026-04-27 18:19 18.55787 -69.98677 627 ft 103 kts 179°
2026-04-27 18:19 18.55057 -69.98691 851 ft 105 kts 178°
2026-04-27 18:19 18.54343 -69.98605 1094 ft 106 kts 165°
2026-04-27 18:20 18.53591 -69.98385 1297 ft 116 kts 162°
2026-04-27 18:20 18.52810 -69.98130 1584 ft 117 kts 162°
2026-04-27 18:20 18.52039 -69.97857 1902 ft 116 kts 160°
2026-04-27 18:20 18.51282 -69.97560 2206 ft 117 kts 159°
2026-04-27 18:21 18.50521 -69.97223 2477 ft 120 kts 157°
2026-04-27 18:21 18.49760 -69.96877 2779 ft 119 kts 158°
2026-04-27 18:21 18.48983 -69.96547 3064 ft 121 kts 160°
2026-04-27 18:21 18.48180 -69.96263 3352 ft 122 kts 164°
2026-04-27 18:22 18.47381 -69.96008 3716 ft 116 kts 161°
2026-04-27 18:22 18.46667 -69.95585 3978 ft 123 kts 144°
2026-04-27 18:22 18.45974 -69.95011 4210 ft 127 kts 143°
2026-04-27 18:22 18.45308 -69.94417 4501 ft 128 kts 143°
2026-04-27 18:23 18.44600 -69.93865 4772 ft 128 kts 147°
2026-04-27 18:23 18.43867 -69.93316 5072 ft 127 kts 147°
2026-04-27 18:23 18.43156 -69.92761 5366 ft 128 kts 139°
2026-04-27 18:23 18.42703 -69.91958 5668 ft 130 kts 117°
2026-04-27 18:24 18.42375 -69.91070 5967 ft 131 kts 109°
2026-04-27 18:24 18.42250 -69.90104 6271 ft 133 kts 94°
2026-04-27 18:24 18.42300 -69.89143 6568 ft 133 kts 88°
2026-04-27 18:24 18.42384 -69.88170 6867 ft 134 kts 88°
2026-04-27 18:25 18.42472 -69.87197 7165 ft 134 kts 88°
2026-04-27 18:25 18.42564 -69.86219 7465 ft 134 kts 88°
2026-04-27 18:25 18.42658 -69.85245 7763 ft 134 kts 88°
2026-04-27 18:25 18.42755 -69.84267 8063 ft 134 kts 88°
2026-04-27 18:26 18.42857 -69.83296 8364 ft 134 kts 88°
2026-04-27 18:26 18.42962 -69.82321 8662 ft 134 kts 88°
2026-04-27 18:26 18.43070 -69.81347 8960 ft 134 kts 88°
2026-04-27 18:26 18.43181 -69.80374 9257 ft 134 kts 88°
2026-04-27 18:27 18.43293 -69.79408 9551 ft 132 kts 88°
2026-04-27 18:27 18.43407 -69.78453 9827 ft 132 kts 88°
2026-04-27 18:27 18.43524 -69.77464 9980 ft 140 kts 88°
2026-04-27 18:27 18.43643 -69.76414 10033 ft 152 kts 88°
2026-04-27 18:28 18.43767 -69.75267 10036 ft 163 kts 88°
2026-04-27 18:28 18.43895 -69.74046 10030 ft 171 kts 88°
2026-04-27 18:28 18.43901 -69.72802 10019 ft 171 kts 104°
2026-04-27 18:28 18.43626 -69.71573 10021 ft 172 kts 108°
2026-04-27 18:29 18.43326 -69.70346 10017 ft 173 kts 109°
2026-04-27 18:29 18.43023 -69.69115 10015 ft 174 kts 109°
2026-04-27 18:29 18.42729 -69.67877 10015 ft 175 kts 106°
2026-04-27 18:29 18.42705 -69.66608 10019 ft 179 kts 85°
2026-04-27 18:30 18.42937 -69.65294 10017 ft 180 kts 82°
2026-04-27 18:30 18.43158 -69.63998 10015 ft 180 kts 84°
2026-04-27 18:30 18.43327 -69.62711 10014 ft 179 kts 87°
2026-04-27 18:30 18.43454 -69.61403 10014 ft 179 kts 89°
2026-04-27 18:31 18.43551 -69.60093 10016 ft 178 kts 90°
2026-04-27 18:31 18.43627 -69.58788 10017 ft 178 kts 91°
2026-04-27 18:31 18.43691 -69.57484 10017 ft 178 kts 91°
2026-04-27 18:31 18.43745 -69.56198 10017 ft 178 kts 91°
2026-04-27 18:32 18.43796 -69.54896 10016 ft 177 kts 92°
2026-04-27 18:32 18.43843 -69.53602 10017 ft 177 kts 92°
2026-04-27 18:32 18.43889 -69.52309 10017 ft 177 kts 92°
2026-04-27 18:32 18.43933 -69.51011 10017 ft 177 kts 92°
2026-04-27 18:33 18.43976 -69.49720 10017 ft 176 kts 92°
2026-04-27 18:33 18.44018 -69.48427 10017 ft 176 kts 92°
2026-04-27 18:33 18.44061 -69.47133 10017 ft 176 kts 92°
2026-04-27 18:33 18.44102 -69.45858 10017 ft 176 kts 92°
2026-04-27 18:34 18.44144 -69.44551 10017 ft 176 kts 92°
2026-04-27 18:34 18.44185 -69.43274 10017 ft 176 kts 92°
2026-04-27 18:34 18.44227 -69.41981 10017 ft 176 kts 92°
2026-04-27 18:34 18.44268 -69.40690 10017 ft 176 kts 92°
2026-04-27 18:35 18.44310 -69.39398 10017 ft 176 kts 92°
2026-04-27 18:35 18.44346 -69.38261 10017 ft 176 kts 92°
2026-04-27 18:35 18.44387 -69.36970 10020 ft 176 kts 92°
2026-04-27 18:35 18.44428 -69.35687 10021 ft 175 kts 92°
2026-04-27 18:36 18.44469 -69.34401 10021 ft 175 kts 92°
2026-04-27 18:36 18.44509 -69.33119 10021 ft 175 kts 92°
2026-04-27 18:36 18.44550 -69.31837 10022 ft 175 kts 92°
2026-04-27 18:36 18.44590 -69.30555 10022 ft 175 kts 92°
2026-04-27 18:37 18.44630 -69.29288 10022 ft 175 kts 92°
2026-04-27 18:37 18.44670 -69.28008 10022 ft 175 kts 92°
2026-04-27 18:37 18.44710 -69.26728 10022 ft 175 kts 92°
2026-04-27 18:37 18.44750 -69.25446 10022 ft 175 kts 92°
2026-04-27 18:38 18.44790 -69.24166 10021 ft 175 kts 92°
2026-04-27 18:38 18.44830 -69.22879 10021 ft 175 kts 92°
2026-04-27 18:38 18.44870 -69.21601 10021 ft 175 kts 92°
2026-04-27 18:38 18.44910 -69.20319 10022 ft 175 kts 92°
2026-04-27 18:39 18.44949 -69.19040 10022 ft 175 kts 92°
2026-04-27 18:39 18.44989 -69.17758 10022 ft 175 kts 92°
2026-04-27 18:39 18.45028 -69.16480 10022 ft 175 kts 92°
2026-04-27 18:39 18.45067 -69.15198 10022 ft 175 kts 92°
2026-04-27 18:40 18.45106 -69.13920 10023 ft 175 kts 92°
2026-04-27 18:40 18.45146 -69.12642 10025 ft 174 kts 92°
2026-04-27 18:40 18.45184 -69.11366 10026 ft 174 kts 92°
2026-04-27 18:40 18.45223 -69.10095 10026 ft 174 kts 92°
2026-04-27 18:41 18.45262 -69.08820 10026 ft 174 kts 92°
2026-04-27 18:41 18.45300 -69.07547 10026 ft 174 kts 92°
2026-04-27 18:41 18.45338 -69.06290 10026 ft 174 kts 92°
2026-04-27 18:41 18.45377 -69.05018 10026 ft 174 kts 92°
2026-04-27 18:42 18.45415 -69.03742 10026 ft 174 kts 92°
2026-04-27 18:42 18.45440 -69.02899 10026 ft 174 kts 92°
2026-04-27 18:42 18.45491 -69.01197 10026 ft 174 kts 92°
2026-04-27 18:42 18.45529 -68.99922 10026 ft 174 kts 92°
2026-04-27 18:43 18.45567 -68.98650 10026 ft 174 kts 92°
2026-04-27 18:43 18.45605 -68.97375 10026 ft 174 kts 92°
2026-04-27 18:43 18.45643 -68.96101 10026 ft 174 kts 92°
2026-04-27 18:43 18.45681 -68.94827 10026 ft 174 kts 92°
2026-04-27 18:44 18.45718 -68.93555 10026 ft 174 kts 92°
2026-04-27 18:44 18.45756 -68.92298 10026 ft 174 kts 92°
2026-04-27 18:44 18.45793 -68.91024 10025 ft 174 kts 92°
2026-04-27 18:44 18.45831 -68.89744 10026 ft 174 kts 92°
2026-04-27 18:45 18.45868 -68.88469 10026 ft 174 kts 92°
2026-04-27 18:45 18.45905 -68.87193 10026 ft 174 kts 92°
2026-04-27 18:45 18.45942 -68.85917 10026 ft 174 kts 92°
2026-04-27 18:45 18.45979 -68.84642 10026 ft 174 kts 92°
2026-04-27 18:46 18.46016 -68.83367 10026 ft 174 kts 92°
2026-04-27 18:46 18.46053 -68.82089 10026 ft 174 kts 92°
2026-04-27 18:46 18.46078 -68.81243 10026 ft 174 kts 92°
2026-04-27 18:46 18.46114 -68.79970 10026 ft 174 kts 92°
2026-04-27 18:47 18.46158 -68.78278 10026 ft 174 kts 92°
2026-04-27 18:47 18.46190 -68.77000 10026 ft 174 kts 92°
2026-04-27 18:47 18.46212 -68.76154 10026 ft 174 kts 92°
2026-04-27 18:47 18.46243 -68.74877 10026 ft 174 kts 92°
2026-04-27 18:48 18.46274 -68.73601 10026 ft 174 kts 92°
2026-04-27 18:48 18.46306 -68.72324 10026 ft 174 kts 92°
2026-04-27 18:48 18.46337 -68.71048 10026 ft 174 kts 92°
2026-04-27 18:48 18.46368 -68.69771 10026 ft 174 kts 92°
2026-04-27 18:49 18.46398 -68.68493 10026 ft 174 kts 92°
2026-04-27 18:49 18.46429 -68.67213 10026 ft 174 kts 92°
2026-04-27 18:49 18.46460 -68.65947 10026 ft 175 kts 92°
2026-04-27 18:49 18.46490 -68.64651 10026 ft 175 kts 92°
2026-04-27 18:50 18.46521 -68.63383 10026 ft 175 kts 92°
2026-04-27 18:50 18.46551 -68.62099 10026 ft 176 kts 92°
2026-04-27 18:50 18.46582 -68.60811 10026 ft 176 kts 92°
2026-04-27 18:50 18.46612 -68.59525 10026 ft 176 kts 92°
2026-04-27 18:51 18.46643 -68.58236 10026 ft 176 kts 92°
2026-04-27 18:51 18.46673 -68.56949 10026 ft 176 kts 92°
2026-04-27 18:51 18.46703 -68.55659 10026 ft 176 kts 92°
2026-04-27 18:51 18.46734 -68.54370 10026 ft 176 kts 92°
2026-04-27 18:52 18.46764 -68.53079 10026 ft 176 kts 92°
2026-04-27 18:52 18.46794 -68.51789 10026 ft 176 kts 92°
2026-04-27 18:52 18.46824 -68.50500 10026 ft 176 kts 92°
2026-04-27 18:53 18.46883 -68.47917 10026 ft 176 kts 92°
2026-04-27 18:53 18.46913 -68.46627 10026 ft 176 kts 92°
2026-04-27 18:53 18.46942 -68.45340 10026 ft 176 kts 92°
2026-04-27 18:53 18.46972 -68.44047 10026 ft 176 kts 92°
2026-04-27 18:54 18.47001 -68.42760 10026 ft 176 kts 92°
2026-04-27 18:54 18.47030 -68.41467 10026 ft 176 kts 92°
2026-04-27 18:54 18.47060 -68.40174 10026 ft 177 kts 92°
2026-04-27 18:54 18.47089 -68.38894 10026 ft 177 kts 92°
2026-04-27 18:55 18.47118 -68.37600 10026 ft 177 kts 92°
2026-04-27 18:55 18.47147 -68.36289 10026 ft 177 kts 92°
2026-04-27 18:55 18.47176 -68.35010 10026 ft 177 kts 92°
2026-04-27 18:55 18.47205 -68.33718 10026 ft 177 kts 92°
2026-04-27 18:56 18.47233 -68.32426 10026 ft 177 kts 92°
2026-04-27 18:56 18.47262 -68.31134 10026 ft 177 kts 92°
2026-04-27 18:56 18.47291 -68.29831 10026 ft 177 kts 92°
2026-04-27 18:56 18.47319 -68.28550 10026 ft 177 kts 92°
2026-04-27 18:57 18.47348 -68.27234 10026 ft 177 kts 92°
2026-04-27 18:57 18.47376 -68.25941 10026 ft 177 kts 92°
2026-04-27 18:57 18.47405 -68.24645 10026 ft 177 kts 92°
2026-04-27 18:57 18.47432 -68.23364 10026 ft 177 kts 92°
2026-04-27 18:58 18.47461 -68.22068 10026 ft 177 kts 92°
2026-04-27 18:58 18.47489 -68.20773 10026 ft 177 kts 92°
2026-04-27 18:58 18.47517 -68.19477 10026 ft 177 kts 92°
2026-04-27 18:58 18.47544 -68.18181 10026 ft 177 kts 92°
2026-04-27 18:59 18.47572 -68.16887 10026 ft 177 kts 92°
2026-04-27 18:59 18.47600 -68.15592 10026 ft 177 kts 92°
2026-04-27 18:59 18.47627 -68.14297 10026 ft 177 kts 92°
2026-04-27 18:59 18.47655 -68.13002 10026 ft 177 kts 92°
2026-04-27 19:00 18.47682 -68.11706 10026 ft 177 kts 92°
2026-04-27 19:00 18.47709 -68.10411 10026 ft 177 kts 92°
2026-04-27 19:00 18.47736 -68.09130 10026 ft 177 kts 92°
2026-04-27 19:00 18.47763 -68.07835 10026 ft 177 kts 92°
2026-04-27 19:01 18.47790 -68.06540 10026 ft 177 kts 92°
2026-04-27 19:01 18.47817 -68.05245 10026 ft 177 kts 92°
2026-04-27 19:01 18.47844 -68.03951 10026 ft 177 kts 92°
2026-04-27 19:01 18.47871 -68.02655 10026 ft 177 kts 92°
2026-04-27 19:02 18.47898 -68.01358 10026 ft 177 kts 92°
2026-04-27 19:02 18.47926 -68.00065 10026 ft 177 kts 92°
2026-04-27 19:02 18.47956 -67.98785 10026 ft 177 kts 92°
2026-04-27 19:02 18.47986 -67.97492 10026 ft 177 kts 92°
2026-04-27 19:03 18.48016 -67.96196 10026 ft 177 kts 92°
2026-04-27 19:03 18.48047 -67.94899 10026 ft 177 kts 92°
2026-04-27 19:03 18.48077 -67.93605 10026 ft 177 kts 92°
2026-04-27 19:03 18.48097 -67.92750 10026 ft 177 kts 92°
2026-04-27 19:04 18.48138 -67.91021 10026 ft 177 kts 92°
2026-04-27 19:04 18.48168 -67.89728 10026 ft 177 kts 92°
2026-04-27 19:04 18.48198 -67.88436 10026 ft 177 kts 92°
2026-04-27 19:04 18.48228 -67.87139 10026 ft 177 kts 92°
2026-04-27 19:05 18.48258 -67.85845 10026 ft 177 kts 92°
2026-04-27 19:05 18.48288 -67.84553 10026 ft 177 kts 92°
2026-04-27 19:05 18.48317 -67.83261 10026 ft 177 kts 92°
2026-04-27 19:05 18.48347 -67.81968 10026 ft 177 kts 92°
2026-04-27 19:06 18.48376 -67.80674 10026 ft 177 kts 92°
2026-04-27 19:06 18.48405 -67.79399 10026 ft 177 kts 92°
2026-04-27 19:06 18.48435 -67.78102 10026 ft 177 kts 92°
2026-04-27 19:06 18.48464 -67.76811 10026 ft 177 kts 92°
2026-04-27 19:07 18.48493 -67.75515 10026 ft 177 kts 92°
2026-04-27 19:07 18.48522 -67.74222 10026 ft 177 kts 92°
2026-04-27 19:07 18.48551 -67.72929 10026 ft 177 kts 92°
2026-04-27 19:07 18.48580 -67.71639 10026 ft 176 kts 92°
2026-04-27 19:08 18.48609 -67.70344 10026 ft 176 kts 92°
2026-04-27 19:08 18.48638 -67.69054 10026 ft 176 kts 92°
2026-04-27 19:08 18.48667 -67.67764 10026 ft 176 kts 92°
2026-04-27 19:08 18.48695 -67.66471 10026 ft 176 kts 92°
2026-04-27 19:09 18.48724 -67.65180 10026 ft 176 kts 92°
2026-04-27 19:09 18.48752 -67.63887 10026 ft 176 kts 92°
2026-04-27 19:09 18.48780 -67.62595 10026 ft 176 kts 92°
2026-04-27 19:09 18.48808 -67.61319 10026 ft 176 kts 92°
2026-04-27 19:10 18.48836 -67.60026 10026 ft 176 kts 92°
2026-04-27 19:10 18.48864 -67.58737 10026 ft 176 kts 92°
2026-04-27 19:10 18.48892 -67.57443 10026 ft 176 kts 92°
2026-04-27 19:10 18.48911 -67.56588 10026 ft 176 kts 92°
2026-04-27 19:11 18.48948 -67.54860 10026 ft 176 kts 92°
2026-04-27 19:11 18.48975 -67.53566 10026 ft 176 kts 92°
2026-04-27 19:11 18.49003 -67.52288 10026 ft 176 kts 92°
2026-04-27 19:11 18.49030 -67.50997 10026 ft 176 kts 92°
2026-04-27 19:12 18.49058 -67.49705 10026 ft 176 kts 92°
2026-04-27 19:12 18.49085 -67.48393 10029 ft 176 kts 92°
2026-04-27 19:12 18.49112 -67.47117 10030 ft 176 kts 92°
2026-04-27 19:12 18.49139 -67.45826 10031 ft 177 kts 92°
2026-04-27 19:13 18.49166 -67.44533 10032 ft 177 kts 92°
2026-04-27 19:13 18.49193 -67.43235 10032 ft 177 kts 92°
2026-04-27 19:13 18.49220 -67.41942 10033 ft 177 kts 92°
2026-04-27 19:13 18.49247 -67.40645 10033 ft 177 kts 92°
2026-04-27 19:14 18.49269 -67.39353 10025 ft 176 kts 89°
2026-04-27 19:14 18.49297 -67.38057 10001 ft 176 kts 92°
2026-04-27 19:14 18.49326 -67.36773 10018 ft 175 kts 92°
2026-04-27 19:14 18.49353 -67.35492 10022 ft 175 kts 92°
2026-04-27 19:15 18.49379 -67.34212 10023 ft 175 kts 92°
2026-04-27 19:15 18.49405 -67.32943 10010 ft 176 kts 92°
2026-04-27 19:15 18.49431 -67.31654 10005 ft 176 kts 92°
2026-04-27 19:15 18.49457 -67.30371 10004 ft 176 kts 92°
2026-04-27 19:16 18.49483 -67.29083 10004 ft 175 kts 92°
2026-04-27 19:16 18.49500 -67.28229 10003 ft 175 kts 92°
2026-04-27 19:16 18.49534 -67.26508 10000 ft 175 kts 92°
2026-04-27 19:16 18.49560 -67.25225 10005 ft 175 kts 92°
2026-04-27 19:17 18.49586 -67.23940 10007 ft 175 kts 92°
2026-04-27 19:17 18.49611 -67.22678 10007 ft 175 kts 92°
2026-04-27 19:17 18.49637 -67.21392 10014 ft 175 kts 92°
2026-04-27 19:17 18.49662 -67.20114 10022 ft 174 kts 92°
2026-04-27 19:18 18.49687 -67.18833 10010 ft 175 kts 92°
2026-04-27 19:18 18.49712 -67.17552 10008 ft 175 kts 92°
2026-04-27 19:18 18.49736 -67.16267 10007 ft 175 kts 92°
2026-04-27 19:18 18.49761 -67.14981 10007 ft 175 kts 92°
2026-04-27 19:19 18.49786 -67.13698 10007 ft 175 kts 92°
2026-04-27 19:19 18.49810 -67.12415 10007 ft 175 kts 92°
2026-04-27 19:19 18.49808 -67.11132 10007 ft 175 kts 95°
2026-04-27 19:19 18.49774 -67.09854 10007 ft 174 kts 95°
2026-04-27 19:20 18.49727 -67.08580 10007 ft 174 kts 96°
2026-04-27 19:20 18.49675 -67.07301 10007 ft 174 kts 96°
2026-04-27 19:20 18.49621 -67.06022 10007 ft 174 kts 96°
2026-04-27 19:20 18.49565 -67.04748 10007 ft 174 kts 96°
2026-04-27 19:21 18.49508 -67.03470 10007 ft 174 kts 96°
2026-04-27 19:21 18.49452 -67.02210 10007 ft 174 kts 96°
2026-04-27 19:21 18.49394 -67.00937 10006 ft 174 kts 96°
2026-04-27 19:21 18.49336 -66.99657 10006 ft 174 kts 96°
2026-04-27 19:22 18.49278 -66.98381 10006 ft 174 kts 96°
2026-04-27 19:22 18.49220 -66.97106 10005 ft 174 kts 96°
2026-04-27 19:22 18.49163 -66.95835 10005 ft 174 kts 96°
2026-04-27 19:22 18.49104 -66.94559 10005 ft 174 kts 96°
2026-04-27 19:23 18.49046 -66.93285 10005 ft 174 kts 96°
2026-04-27 19:23 18.48988 -66.92011 10005 ft 174 kts 96°
2026-04-27 19:23 18.48930 -66.90752 10005 ft 174 kts 96°
2026-04-27 19:23 18.48872 -66.89480 10005 ft 174 kts 96°
2026-04-27 19:24 18.48813 -66.88204 10005 ft 174 kts 96°
2026-04-27 19:24 18.48755 -66.86932 10005 ft 174 kts 96°
2026-04-27 19:24 18.48696 -66.85658 10005 ft 174 kts 96°
2026-04-27 19:24 18.48640 -66.84383 10005 ft 174 kts 96°
2026-04-27 19:25 18.48585 -66.83110 10005 ft 174 kts 96°
2026-04-27 19:25 18.48530 -66.81835 10005 ft 174 kts 96°
2026-04-27 19:25 18.48475 -66.80560 10005 ft 174 kts 96°
2026-04-27 19:25 18.48420 -66.79283 10006 ft 174 kts 96°
2026-04-27 19:26 18.48366 -66.78013 10001 ft 174 kts 96°
2026-04-27 19:26 18.48312 -66.76757 10000 ft 174 kts 96°
2026-04-27 19:26 18.48257 -66.75484 10000 ft 173 kts 96°
2026-04-27 19:26 18.48202 -66.74197 9999 ft 173 kts 96°
2026-04-27 19:27 18.48147 -66.72944 9999 ft 173 kts 96°
2026-04-27 19:27 18.48093 -66.71672 9999 ft 173 kts 96°
2026-04-27 19:27 18.48038 -66.70406 9999 ft 173 kts 96°
2026-04-27 19:27 18.47983 -66.69135 9999 ft 173 kts 96°
2026-04-27 19:28 18.47928 -66.67869 9999 ft 173 kts 96°
2026-04-27 19:28 18.47873 -66.66603 10000 ft 173 kts 96°
2026-04-27 19:28 18.47817 -66.65336 10001 ft 173 kts 96°
2026-04-27 19:28 18.47763 -66.64082 10001 ft 173 kts 96°
2026-04-27 19:29 18.47708 -66.62825 10001 ft 173 kts 96°
2026-04-27 19:29 18.47652 -66.61540 10001 ft 173 kts 96°
2026-04-27 19:29 18.47594 -66.60270 10001 ft 173 kts 96°
2026-04-27 19:29 18.47536 -66.59001 10001 ft 173 kts 96°
2026-04-27 19:30 18.47477 -66.57733 10001 ft 173 kts 96°
2026-04-27 19:30 18.47417 -66.56462 10001 ft 173 kts 96°
2026-04-27 19:30 18.47359 -66.55209 10001 ft 173 kts 96°
2026-04-27 19:30 18.47299 -66.53939 9999 ft 173 kts 96°
2026-04-27 19:31 18.47238 -66.52657 9982 ft 174 kts 96°
2026-04-27 19:31 18.47176 -66.51366 9756 ft 182 kts 96°
2026-04-27 19:31 18.47113 -66.50051 9515 ft 177 kts 96°
2026-04-27 19:31 18.47054 -66.48770 9271 ft 172 kts 96°
2026-04-27 19:32 18.46996 -66.47524 9030 ft 169 kts 96°
2026-04-27 19:32 18.46939 -66.46314 8792 ft 166 kts 96°
2026-04-27 19:32 18.46880 -66.45083 8548 ft 165 kts 96°
2026-04-27 19:32 18.46823 -66.43884 8309 ft 163 kts 96°
2026-04-27 19:33 18.46766 -66.42690 8070 ft 163 kts 96°
2026-04-27 19:33 18.46747 -66.42302 7993 ft 163 kts 96°
2026-04-27 19:33 18.46649 -66.40281 7599 ft 167 kts 96°
2026-04-27 19:33 18.46590 -66.39047 7365 ft 170 kts 96°
2026-04-27 19:34 18.46530 -66.37802 7128 ft 171 kts 95°
2026-04-27 19:34 18.46471 -66.36567 6894 ft 171 kts 95°
2026-04-27 19:34 18.46410 -66.35313 6656 ft 171 kts 95°
2026-04-27 19:34 18.46350 -66.34063 6418 ft 171 kts 95°
2026-04-27 19:35 18.46290 -66.32812 6179 ft 170 kts 95°
2026-04-27 19:35 18.46251 -66.31987 6021 ft 170 kts 95°
2026-04-27 19:35 18.46102 -66.30765 5775 ft 168 kts 111°
2026-04-27 19:35 18.45350 -66.29366 5473 ft 165 kts 126°
2026-04-27 19:36 18.44906 -66.28701 5313 ft 165 kts 127°
2026-04-27 19:36 18.44234 -66.27720 5075 ft 165 kts 127°
2026-04-27 19:36 18.43562 -66.26753 4838 ft 164 kts 127°
2026-04-27 19:36 18.42878 -66.25783 4599 ft 164 kts 127°
2026-04-27 19:37 18.42196 -66.24825 4360 ft 163 kts 127°
2026-04-27 19:37 18.41509 -66.23872 4121 ft 163 kts 127°
2026-04-27 19:37 18.40821 -66.22928 3883 ft 163 kts 127°
2026-04-27 19:37 18.40126 -66.21985 3644 ft 162 kts 127°
2026-04-27 19:38 18.39438 -66.21058 3407 ft 162 kts 127°
2026-04-27 19:38 18.38732 -66.20116 3113 ft 165 kts 127°
2026-04-27 19:38 18.38013 -66.19163 2815 ft 167 kts 127°
2026-04-27 19:38 18.37293 -66.18213 2597 ft 163 kts 127°
2026-04-27 19:39 18.36751 -66.17336 2322 ft 165 kts 109°
2026-04-27 19:39 18.36808 -66.16195 2124 ft 159 kts 66°
2026-04-27 19:39 18.37498 -66.15320 2041 ft 152 kts 46°
2026-04-27 19:39 18.38211 -66.14522 2001 ft 143 kts 52°
2026-04-27 19:40 18.38768 -66.13708 1996 ft 136 kts 59°
2026-04-27 19:40 18.39228 -66.12845 2000 ft 132 kts 64°
2026-04-27 19:40 18.39612 -66.11995 2002 ft 129 kts 67°
2026-04-27 19:40 18.39962 -66.11155 2017 ft 115 kts 68°
2026-04-27 19:41 18.40042 -66.10960 2014 ft 110 kts 68°
2026-04-27 19:41 18.40221 -66.10527 1948 ft 106 kts 67°
2026-04-27 19:41 18.40529 -66.09836 1788 ft 105 kts 65°
2026-04-27 19:41 18.40823 -66.09181 1626 ft 105 kts 66°
2026-04-27 19:42 18.40924 -66.08952 1566 ft 105 kts 65°
2026-04-27 19:42 18.41216 -66.08274 1485 ft 99 kts 66°
2026-04-27 19:42 18.41482 -66.07599 1327 ft 102 kts 68°
2026-04-27 19:42 18.41725 -66.06910 1218 ft 98 kts 68°
2026-04-27 19:43 18.41913 -66.06394 1097 ft 101 kts 65°
2026-04-27 19:43 18.41953 -66.06290 1078 ft 100 kts 65°
2026-04-27 19:43 18.42226 -66.05602 924 ft 102 kts 64°
2026-04-27 19:43 18.42501 -66.04912 785 ft 103 kts 64°
2026-04-27 19:44 18.42789 -66.04204 629 ft 106 kts 64°
2026-04-27 19:44 18.43083 -66.03497 492 ft 105 kts 65°
2026-04-27 19:44 18.43364 -66.02778 334 ft 105 kts 65°
2026-04-27 19:44 18.43643 -66.02081 194 ft 102 kts 64°
2026-04-27 19:45 18.43910 -66.01420 54 ft 94 kts 64°
2026-04-27 19:45 18.44139 -66.00837 14 ft 76 kts 64°
2026-04-27 19:45 18.44318 -66.00421 14 ft 43 kts 68°
2026-04-27 19:45 18.44375 -66.00264 14 ft 19 kts 67°
2026-04-27 19:46 18.44431 -66.00105 14 ft 19 kts 83°
2026-04-27 19:46 18.44390 -66.00047 14 ft 3 kts 162°
2026-04-27 19:46 18.44387 -66.00047 14 ft 0 kts 162°
2026-04-27 19:47 18.44368 -66.00040 14 ft 8 kts 161°
2026-04-27 19:48 18.44337 -66.00027 14 ft 6 kts 153°
2026-04-27 19:48 18.44307 -66.00011 14 ft 9 kts 154°
2026-04-27 19:48 18.44277 -65.99997 14 ft 2 kts 156°
2026-04-27 19:48 18.44256 -65.99990 14 ft 8 kts 174°
2026-04-27 19:49 18.44217 -66.00045 14 ft 12 kts 250°
2026-04-27 19:49 18.44196 -66.00099 14 ft 5 kts 248°
2026-04-27 19:49 18.44176 -66.00148 14 ft 8 kts 247°
2026-04-27 19:49 18.44154 -66.00202 14 ft 14 kts 246°
2026-04-27 19:50 18.44115 -66.00308 14 ft 15 kts 247°
2026-04-27 19:50 18.44078 -66.00366 14 ft 5 kts 182°
2026-04-27 19:50 18.44027 -66.00346 14 ft 5 kts 160°
2026-04-27 19:50 18.43986 -66.00319 14 ft 8 kts 113°
2026-04-27 19:51 18.43991 -66.00283 14 ft 9 kts 74°
2026-04-27 19:51 18.43979 -66.00224 14 ft 12 kts 144°
2026-04-27 19:51 18.43926 -66.00207 14 ft 5 kts 226°
2026-04-27 19:51 18.43928 -66.00205 14 ft 4 kts 245°
2026-04-27 19:52 18.43927 -66.00208 14 ft 0 kts 250°